SKYCRAFT 4D

导读

SKYCRAFT 4D是美国于2025年7月23日发射的人造卫星。作为航天科技发展的最新成果,它依托美国成熟的航天发射技术进入预定轨道,将服务于对地观测、空间技术验证等领域,可提供地球表面监测、地理信息采集等服务,进一步增强美国在商业航天与遥感领域的卫星部署能力,助力空间科学探索与民用航天应用拓展。

基本信息
目录编号:
64898
目录名称:
SKYCRAFT 4D
国际标识:
2025-154K
轨道中心:
EARTH
卫星名称:
SKYCRAFT 4D
卫星全名:
SKYCRAFT 4D
卫星状态:
在轨 (已飞行409 天)
发射日期:
2025-07-23 UTC
国别 :
澳大利亚 (AU)
星等 :
--
轨道信息
数据来源 国际轨道数据
星历时间: 2026-09-04T22:31:20+0800
12小时前
查看轨道信息
半长轴: 6954.412km
偏心率: 0.0004185
轨道倾角: 97.662°
近地点辐角 13.524°
升交点赤经 310.168°
平近点角 346.609°
近地点: 573.364km
远地点: 579.186km
周期: 96.195分钟
每日圈数: 14.969669
详细信息
使用方式:
暂无
2D轨道图
3D轨道图
轨道高度分析图
轨道倾角分析图
轨道综合分析图
查看轨道综合分析图
交会数据列表
事件ID 空间交会对象 最接近时刻(TCA) 交会距离 交会风险概率(CRP) 交会风险指数(CRI) 操作
CDM_260831-014306-470306-489823
2026-08-31T
01:43:48+0000
0.266 km
中距离
4.922725E-4 高风险 0.89
CDM_260905-051505-679406-489824
2026-09-05T
05:15:53+0000
1.222 km
极远距离
1.022876E-5 中风险 0.55
CDM_260901-175206-174106-489823
OBJECT G (61741)
2026-09-01T
17:52:11+0000
2.554 km
极远距离
1.611939E-6 低风险 0.39